Вернуться в каталог

IRIDIUM 134

АктивенСвязьPO
NORAD 43075·PAYLOAD·🇺🇸 United States

Запущен Dec 23, 2017 с Vandenberg Space Force Base

Loading…

Ближайшие Пролёты (ближайшие 24 часа)

TLE

СвежийSource: CelesTrak SupGP

Эпоха: Sep 14, 2026, 20:51 UTC

1 43075C 17083F   26257.86909722  .00002200  00000+0  78666-3 0  2579
2 43075  86.3916 284.5773 0002306  91.9749  14.4101 14.34214418    14

Отслеживайте IRIDIUM 134 в реальном времени с AllMySat

Download on the App Store